This demonstration page uses our WeatherBlox Daily Observations layout. Learn more.

Left ArrowRight Arrow

40.92945, -100.16068

Hourly Observations for November 7, 2015

Temp ( °F °C ) Dew Point ( °F °C ) Humidity (%) Winds ( mph kmh ) Pressure ( in mb ) Visibility ( mi km ) Precip ( " mm )
12:15 am 00:15 Clear 30 -1 29 -1.6 96 96 WNW 7 11 30.45 1031 10 16 N/A
12:35 am 00:35 Clear 30 -1 29 -1.6 96 96 WNW 6 9 30.48 1032 10 16 N/A
12:55 am 00:55 Clear 30 -1.1 29 -1.7 96 96 WNW 3 6 30.48 1032 10 16 N/A
1:15 am 01:15 Clear 30 -1.3 29 -1.9 96 96 W 5 7 30.48 1032 10 16 N/A
1:35 am 01:35 Clear 28 -2 27 -2.6 96 96 WNW 5 7 30.48 1032 10 16 N/A
1:55 am 01:55 Clear 29 -1.7 28 -2.4 95 95 WNW 3 6 30.48 1032 10 16 N/A
2:15 am 02:15 Clear 28 -2.4 27 -3 96 96 NW 6 9 30.48 1032 10 16 N/A
2:35 am 02:35 Clear 27 -2.6 26 -3.2 96 96 NW 7 11 30.50 1033 10 16 N/A
2:55 am 02:55 Clear 27 -3 26 -3.5 96 96 NW 6 9 30.50 1033 10 16 N/A
3:15 am 03:15 Clear 28 -2.5 26 -3.1 96 96 NW 3 6 30.48 1032 10 16 N/A
3:35 am 03:35 Clear 29 -1.8 28 -2.5 95 95 WNW 3 6 30.48 1032 10 16 N/A
3:55 am 03:55 Clear 28 -2.1 27 -2.7 96 96 W 5 7 30.48 1032 10 16 N/A
4:15 am 04:15 Clear 28 -2.5 26 -3.1 96 96 WNW 6 9 30.48 1032 10 16 N/A
4:35 am 04:35 Clear 28 -2.2 27 -2.8 96 96 WNW 6 9 30.48 1032 10 16 N/A
4:55 am 04:55 Clear 28 -2.5 27 -3 96 96 WNW 7 11 30.48 1032 10 16 N/A
5:15 am 05:15 Clear 28 -2.2 27 -3 94 94 WNW 7 11 30.48 1032 10 16 N/A
5:35 am 05:35 Clear 28 -2.5 26 -3.2 95 95 WNW 6 9 30.53 1034 10 16 N/A
5:55 am 05:55 Clear 27 -2.7 26 -3.5 94 94 WNW 5 7 30.53 1034 10 16 N/A
6:15 am 06:15 Clear 26 -3.2 25 -4 94 94 WNW 6 9 30.53 1034 10 16 N/A
6:35 am 06:35 Clear 26 -3.1 25 -3.8 95 95 W 6 9 30.53 1034 10 16 N/A
6:55 am 06:55 Clear 26 -3.3 25 -4 95 95 W 3 6 30.53 1034 10 16 N/A
7:15 am 07:15 Clear 26 -3.3 25 -4 95 95 WNW 6 9 30.53 1034 10 16 N/A
7:35 am 07:35 Sunny 26 -3.2 25 -4 94 94 WNW 6 9 30.53 1034 10 16 N/A
7:55 am 07:55 Sunny 28 -2.3 27 -3 95 95 WNW 3 6 30.53 1034 10 16 N/A
8:15 am 08:15 Sunny 30 -1.1 29 -1.8 95 95 N N/A 30.50 1033 10 16 N/A
8:35 am 08:35 Sunny 31 -0.3 30 -1.1 94 94 W 3 6 30.50 1033 10 16 N/A
8:55 am 08:55 Sunny 32 0.1 31 -0.5 96 96 WNW 5 7 30.50 1033 10 16 N/A
9:15 am 09:15 Sunny 34 1 32 0.1 94 94 WNW 5 7 30.50 1033 10 16 N/A
9:35 am 09:35 Sunny 36 2.1 34 0.9 92 92 W 3 6 30.48 1032 10 16 N/A
9:55 am 09:55 Sunny 38 3.5 35 1.7 88 88 W 5 7 30.48 1032 10 16 N/A
10:15 am 10:15 Sunny 41 4.8 36 2.1 83 83 W 5 7 30.45 1031 10 16 N/A
10:35 am 10:35 Sunny 44 6.4 36 2.3 75 75 N N/A 30.45 1031 10 16 N/A
10:55 am 10:55 Sunny 47 8.1 37 2.6 69 69 W 3 6 30.42 1030 10 16 N/A
11:15 am 11:15 Sunny 49 9.6 38 3.1 64 64 SSW 6 9 30.42 1030 10 16 N/A
11:35 am 11:35 Sunny 51 10.4 35 1.9 56 56 SW 8 13 30.42 1030 10 16 N/A
11:55 am 11:55 Sunny 52 11 35 1.9 54 54 SW 8 13 30.39 1029 10 16 N/A
12:15 pm 12:15 Sunny 53 11.4 33 0.7 48 48 W 9 15 30.39 1029 10 16 N/A
12:35 pm 12:35 Sunny 53 11.8 34 0.9 47 47 SW 6 9 30.39 1029 10 16 N/A
12:55 pm 12:55 Sunny 54 12 32 -0.1 44 44 SSW 9 15 30.36 1028 10 16 N/A
1:15 pm 13:15 Sunny 54 12.2 32 0.1 44 44 WSW 9 15 30.36 1028 10 16 N/A
1:35 pm 13:35 Sunny 55 12.6 32 -0.2 42 42 W 8 13 30.36 1028 10 16 N/A
1:55 pm 13:55 Sunny 55 12.7 30 -1.1 39 39 WSW 9 15 30.30 1026 10 16 N/A
2:15 pm 14:15 Sunny 55 12.7 30 -1.3 38 38 S 13 20 30.30 1026 10 16 N/A
2:35 pm 14:35 Sunny 55 13 32 -0.2 41 41 SW 7 11 30.30 1026 10 16 N/A
2:55 pm 14:55 Sunny 56 13.2 30 -1 38 38 WSW 9 15 30.30 1026 10 16 N/A
3:15 pm 15:15 Sunny 56 13.1 29 -1.5 37 37 SW 13 20 30.30 1026 10 16 N/A
3:35 pm 15:35 Sunny 55 13 30 -0.9 39 39 SSW 14 22 30.30 1026 10 16 N/A
3:55 pm 15:55 Sunny 55 12.8 28 -2 36 36 WSW 8 13 30.30 1026 10 16 N/A
4:15 pm 16:15 Sunny 55 12.6 29 -1.9 37 37 SSW 9 15 30.30 1026 10 16 N/A
4:35 pm 16:35 Sunny 54 12.1 32 -0.1 43 43 SSW 9 15 30.30 1026 10 16 N/A
4:55 pm 16:55 Sunny 53 11.4 32 -0.2 45 45 SSW 7 11 30.30 1026 10 16 N/A
5:15 pm 17:15 Sunny 48 9.1 32 undefined 53 53 S 7 11 30.33 1027 10 16 N/A
5:35 pm 17:35 Clear 46 7.5 31 -0.4 58 58 SSE 6 9 30.33 1027 10 16 N/A
5:55 pm 17:55 Clear 43 6.1 31 -0.3 64 64 SSE 8 13 30.36 1028 10 16 N/A
6:15 pm 18:15 Clear 41 4.9 32 -0.2 70 70 S 7 11 30.36 1028 10 16 N/A
6:35 pm 18:35 Clear 39 4.1 31 -0.7 71 71 S 8 13 30.36 1028 10 16 N/A
6:55 pm 18:55 Clear 40 4.4 31 -0.5 71 71 S 8 13 30.36 1028 10 16 N/A
7:15 pm 19:15 Clear 40 4.7 32 -0.1 71 71 S 8 13 30.36 1028 10 16 N/A
7:35 pm 19:35 Clear 39 4.1 32 -0.2 74 74 S 7 11 30.36 1028 10 16 N/A
7:55 pm 19:55 Clear 38 3.6 31 -0.5 75 75 S 7 11 30.36 1028 10 16 N/A
8:15 pm 20:15 Clear 40 4.6 32 undefined 72 72 S 9 15 30.36 1028 10 16 N/A
8:35 pm 20:35 Clear 42 5.5 32 undefined 68 68 S 10 17 30.36 1028 10 16 N/A
8:55 pm 20:55 Clear 42 5.3 31 -0.3 67 67 S 10 17 30.33 1027 10 16 N/A
9:15 pm 21:15 Clear 42 5.4 31 -0.5 66 66 S 12 19 30.33 1027 10 16 N/A
9:35 pm 21:35 Clear 42 5.6 30 -1 63 63 S 10 17 30.30 1026 10 16 N/A
9:55 pm 21:55 Clear 41 5.2 30 -1 65 65 S 10 17 30.33 1027 10 16 N/A
10:15 pm 22:15 Clear 40 4.6 30 -1.2 66 66 S 8 13 30.33 1027 10 16 N/A
10:35 pm 22:35 Clear 40 4.7 30 -1.1 66 66 S 12 19 30.33 1027 10 16 N/A
10:55 pm 22:55 Clear 40 4.6 30 -1 67 67 S 12 19 30.33 1027 10 16 N/A
11:15 pm 23:15 Clear 40 4.4 30 -1.1 68 68 S 12 19 30.33 1027 10 16 N/A
11:35 pm 23:35 Clear 39 4.1 30 -1 70 70 S 10 17 30.33 1027 10 16 N/A
11:55 pm 23:55 Clear 39 4.1 30 -1.1 69 69 S 10 17 30.33 1027 10 16 N/A

Powered by AerisWeather